#timestamp,LO_Frequency,Hit,StdDev 
1592881215.4,286047004.3,Y
1592881235.2,286047004.4,P
1592881255.1,286047004.4,N
1592881256.0,286047004.4,N
1592881275.8,286047005.3,Y
1592881295.7,286047002.6,P
1592881315.5,286046998.6,P
1592881335.3,286047001.0,N
1592881355.2,286047000.3,N
1592881375.0,286047000.4,N
1592881375.9,286047000.4,N
1592881395.8,286046998.2,N
1592881415.6,286047000.8,N
1592881435.4,286046999.7,N
1592881455.3,286047000.1,N
1592881475.1,286047001.2,N
1592881495.8,286047000.7,N
1592881515.7,286047000.4,N
1592881535.5,286047002.8,N
1592881555.4,286046999.8,N
1592881575.2,286047002.6,N
1592881595.0,286047000.1,N
1592881595.9,286047000.1,N
1592881615.8,286047000.1,N
1592881635.6,286047000.5,N
1592881655.5,286046999.7,N
1592881675.3,286047000.1,N
1592881695.1,286047000.7,N
1592881715.9,286047000.8,N
1592881735.7,286047000.7,N
1592881755.5,286047000.0,N
1592881775.4,286047002.2,N
1592881795.2,286047001.9,N
1592881815.1,286047002.1,N
1592881816.0,286047002.1,N
1592881835.8,286047004.2,Y
1592881855.6,286047001.5,P
1592881875.5,286047002.8,P
1592881895.3,286047002.7,P
1592881915.1,286046999.9,N
1592881935.9,286047000.5,N
1592881955.7,286047000.0,N
1592881975.6,286047000.3,N
1592881995.4,286047001.9,N
1592882015.2,286047002.6,N
1592882035.1,286047002.0,N
1592882036.0,286047002.0,N
1592882055.8,286047003.6,Y
1592882075.7,286047004.2,P
1592882095.5,286047005.6,P
1592882115.3,286047003.0,N
1592882135.2,286047005.7,Y
1592882155.0,286047002.4,P
1592882155.9,286047002.4,P
1592882175.7,286047000.9,N
1592882195.6,286047001.1,N
1592882215.4,286046998.2,N
1592882235.3,286046999.4,N
1592882255.1,286047002.2,N
1592882275.8,286047000.0,N
1592882295.7,286046998.2,N
1592882315.5,286047000.7,N
1592882335.4,286047002.4,N
1592882355.2,286047002.3,N
1592882375.0,286047002.6,N
1592882375.9,286047002.6,N
1592882395.8,286047005.1,Y
1592882415.6,286047003.2,P
1592882435.4,286047004.6,P
1592882455.3,286047007.4,P
1592882475.1,286047004.7,N
1592882495.9,286047005.1,N
1592882515.7,286047001.3,N
1592882535.5,286047002.6,N
1592882555.4,286047000.4,N
1592882575.2,286047001.4,N
1592882595.1,286047002.6,N
1592882596.0,286047002.6,N
1592882615.8,286047000.5,N
1592882635.6,286046999.8,N
1592882655.5,286047002.1,N
1592882675.3,286047000.9,N
1592882695.1,286046998.5,N
1592882715.9,286047000.9,N
1592882735.7,286046999.0,N
1592882755.6,286046998.6,N
1592882775.4,286047001.0,N
1592882795.2,286047001.7,N
1592882815.1,286047000.8,N
1592882816.0,286047000.8,N
1592882835.8,286046998.8,N
1592882855.7,286046999.5,N
1592882875.5,286046998.5,N
1592882895.3,286046998.3,N
1592882915.2,286046999.2,N
1592882935.0,286046999.1,N
1592882935.9,286046999.1,N
1592882955.7,286046999.4,N
1592882975.6,286046999.3,N
1592882995.4,286046999.1,N
1592883015.3,286046999.6,N
1592883035.1,286046999.6,N
1592883055.8,286046996.5,N
1592883075.7,286046999.2,N
1592883095.5,286046998.8,N
1592883115.4,286046998.3,N
1592883135.2,286046999.4,N
1592883155.0,286046999.2,N
1592883155.9,286046999.2,N
1592883175.8,286046999.3,N
1592883195.6,286046999.2,N
1592883215.4,286046999.3,N
1592883235.3,286046996.5,Y
1592883255.1,286046998.6,P
1592883275.9,286046999.5,N
1592883295.7,286046998.2,P
1592883315.5,286047000.8,N
1592883335.4,286046999.0,N
1592883355.2,286047000.7,N
1592883375.1,286047001.8,N
1592883376.0,286047001.8,N
1592883395.8,286047001.1,N
1592883415.6,286046999.1,N
1592883435.5,286046999.3,N
1592883455.3,286046996.9,N
1592883475.2,286046999.0,N
1592883495.9,286046996.5,N
1592883515.7,286046994.9,Y
1592883535.6,286046997.3,P
1592883555.4,286046997.7,N
1592883575.3,286046997.2,P
1592883595.1,286046997.8,N
1592883596.0,286046997.8,N
1592883615.8,286046995.0,Y
1592883635.7,286046998.3,P
1592883655.5,286046998.5,P
1592883675.4,286046998.7,P
1592883695.2,286046999.0,Y
1592883715.0,286047000.7,P
1592883715.9,286047000.7,N
1592883735.8,286047000.7,N
1592883755.6,286046999.3,N
1592883775.5,286047000.9,N
1592883795.3,286047000.9,N
1592883815.1,286046998.4,N
1592883835.9,286047000.2,N
1592883855.7,286047000.3,N
1592883875.6,286047000.8,N
1592883895.4,286047000.8,N
1592883915.2,286047000.4,N
1592883935.1,286046998.5,N
1592883936.0,286046998.5,N
1592883955.8,286046999.7,N
1592883975.6,286047000.8,N
1592883995.5,286047000.9,N
1592884015.3,286046998.3,N
1592884035.2,286046998.5,N
1592884055.9,286046999.5,N
1592884075.7,286046998.7,N
1592884095.6,286046999.3,N
1592884115.4,286046999.5,N
1592884135.2,286046999.3,N
1592884155.1,286046998.2,N
1592884156.0,286046998.2,N
1592884175.8,286046998.2,N
1592884195.7,286047000.0,N
1592884215.5,286046998.4,N
1592884235.3,286046999.5,N
1592884255.2,286046999.5,N
1592884275.0,286046996.9,Y
1592884275.9,286046996.9,P
1592884295.8,286046998.7,N
1592884315.6,286046998.8,N
1592884335.4,286046999.4,N
1592884355.3,286046999.2,N
1592884375.1,286046998.4,N
1592884395.9,286046998.7,N
1592884415.7,286047000.9,N
1592884435.5,286047000.0,N
1592884455.4,286047000.8,N
1592884475.2,286047001.0,N
1592884495.1,286046998.3,N
1592884496.0,286046998.3,N
1592884515.8,286047001.2,N
1592884535.6,286046998.2,N
1592884555.5,286047001.1,N
1592884575.3,286047001.0,N
1592884595.1,286047000.0,N
1592884615.9,286047000.5,N
1592884635.7,286047000.9,N
1592884655.6,286047000.5,N
1592884675.4,286047000.7,N
1592884695.2,286046999.1,N
1592884715.1,286046996.9,N
1592884716.0,286046996.9,N
1592884735.8,286046999.1,N
1592884755.7,286046999.4,N
1592884775.5,286046998.7,N
1592884795.3,286047001.1,N
